EW8045 Weather Reports


Display with metric or nautical units.
time (UTC)temp
F
wind
direction
speed
MPH
gust
MPH
rain 1hr
in
rain 24hr
in
rain mn
in
humidity
%
barometer
mb
20260510204542 91 216 1.0 7.0 0.00 0.01 0.01 49 1015.7
20260510204036 91 332 0.0 3.0 0.00 0.01 0.01 49 1015.7
20260510203535 91 340 0.0 7.0 0.00 0.01 0.01 48 1015.7
20260510203036 92 240 0.0 8.0 0.00 0.01 0.01 47 1015.5
20260510202540 92 300 0.0 8.0 0.00 0.01 0.01 48 1015.5
20260510202035 92 107 0.0 5.0 0.00 0.01 0.01 46 1015.5
20260510201535 92 240 0.0 10.0 0.00 0.01 0.01 46 1015.4
20260510201035 93 234 2.0 10.0 0.00 0.01 0.01 45 1015.4
20260510200535 93 331 0.0 7.0 0.00 0.01 0.01 43 1015.4
20260510200035 93 286 1.0 7.0 0.00 0.01 0.01 42 1015.5
20260510195535 93 305 0.0 9.0 0.00 0.01 0.01 43 1015.5
20260510195034 93 219 0.0 10.0 0.00 0.01 0.01 43 1015.5
20260510194549 94 194 1.0 10.0 0.00 0.01 0.01 42 1015.5
20260510194034 94 221 0.0 10.0 0.00 0.01 0.01 41 1015.5
20260510193534 94 298 1.0 10.0 0.00 0.01 0.01 40 1015.5
20260510193033 95 254 0.0 7.0 0.00 0.01 0.01 41 1015.4
20260510192533 94 229 1.0 12.0 0.00 0.01 0.01 42 1015.4
20260510192032 94 269 1.0 14.0 0.00 0.01 0.01 44 1015.4
20260510191532 94 217 5.0 14.0 0.00 0.01 0.01 44 1015.4
20260510191031 94 227 1.0 12.0 0.00 0.01 0.01 44 1015.4
20260510190530 94 222 2.0 9.0 0.00 0.01 0.01 45 1015.4
20260510190044 93 220 2.0 11.0 0.00 0.01 0.01 45 1015.4
20260510185530 93 198 5.0 11.0 0.00 0.01 0.01 47 1015.4
20260510185030 92 213 1.0 8.0 0.00 0.01 0.01 50 1015.4
20260510184529 92 312 0.0 4.0 0.00 0.01 0.01 48 1015.5
20260510184029 92 282 0.0 10.0 0.00 0.01 0.01 48 1015.5
20260510183529 92 221 3.0 12.0 0.00 0.01 0.01 49 1015.5
20260510183030 92 232 4.0 12.0 0.00 0.01 0.01 48 1015.7
20260510182534 92 314 2.0 12.0 0.00 0.01 0.01 47 1015.7
20260510182029 93 213 1.0 8.0 0.00 0.01 0.01 47 1015.7
20260510181531 94 242 0.0 10.0 0.00 0.01 0.01 48 1015.9
20260510181028 93 238 5.0 10.0 0.00 0.01 0.01 47 1015.9
20260510180527 93 249 4.0 11.0 0.00 0.01 0.01 47 1015.9
20260510180033 93 187 2.0 9.0 0.00 0.01 0.01 46 1016.0
20260510175527 93 163 3.0 8.0 0.00 0.01 0.01 47 1016.0
20260510175027 93 209 0.0 9.0 0.00 0.01 0.01 47 1016.0
20260510174527 93 260 2.0 12.0 0.00 0.01 0.01 47 1016.3
20260510174026 92 227 4.0 12.0 0.00 0.01 0.01 47 1016.3
20260510173525 92 232 0.0 14.0 0.00 0.01 0.01 49 1016.3
20260510173025 92 201 0.0 11.0 0.00 0.01 0.01 49 1016.4
20260510172525 92 251 3.0 11.0 0.00 0.01 0.01 48 1016.4
20260510172025 92 224 0.0 8.0 0.00 0.01 0.01 48 1016.4
20260510171525 92 224 2.0 8.0 0.00 0.01 0.01 48 1016.6
20260510171024 92 315 2.0 14.0 0.00 0.01 0.01 48 1016.6
20260510170523 92 167 4.0 14.0 0.00 0.01 0.01 48 1016.6
20260510170023 92 193 2.0 8.0 0.00 0.01 0.01 49 1016.8
20260510165523 92 232 0.0 10.0 0.00 0.01 0.01 48 1016.8
20260510165022 92 224 2.0 10.0 0.00 0.01 0.01 50 1016.8
20260510164523 91 220 1.0 7.0 0.00 0.01 0.01 50 1016.7
20260510164021 91 225 3.0 7.0 0.00 0.01 0.01 50 1016.7
20260510163522 91 213 3.0 7.0 0.00 0.01 0.01 51 1016.7
20260510163020 91 231 0.0 5.0 0.00 0.01 0.01 50 1017.0
20260510162522 91 229 0.0 8.0 0.00 0.01 0.01 50 1017.0
20260510162020 91 234 4.0 8.0 0.00 0.01 0.01 52 1017.0
20260510161525 90 171 0.0 7.0 0.00 0.01 0.01 51 1017.0
20260510161023 91 212 0.0 7.0 0.00 0.01 0.01 52 1017.0
20260510160522 91 270 0.0 10.0 0.00 0.01 0.01 50 1017.0
20260510160030 91 215 3.0 10.0 0.00 0.01 0.01 50 1017.1
20260510155517 91 209 1.0 7.0 0.00 0.01 0.01 50 1017.1
20260510155016 91 276 0.0 5.0 0.00 0.01 0.01 50 1017.1
20260510154517 91 211 0.0 9.0 0.00 0.01 0.01 52 1017.0
20260510154015 91 228 2.0 9.0 0.00 0.01 0.01 52 1017.0
20260510153515 91 240 1.0 7.0 0.00 0.01 0.01 54 1017.0
20260510153014 91 225 1.0 6.0 0.00 0.01 0.01 51 1016.9
20260510152513 91 202 1.0 10.0 0.00 0.01 0.01 52 1016.9
20260510152011 90 183 1.0 10.0 0.00 0.01 0.01 53 1016.9
20260510151521 89 164 0.0 7.0 0.00 0.01 0.01 55 1017.1
20260510151009 89 197 3.0 10.0 0.00 0.01 0.01 55 1017.1
20260510150508 88 225 1.0 10.0 0.00 0.01 0.01 56 1017.1
20260510150008 88 209 4.0 8.0 0.00 0.01 0.01 55 1017.0
20260510145505 87 211 2.0 7.0 0.00 0.01 0.01 57 1017.0
20260510145005 87 167 2.0 9.0 0.00 0.01 0.01 57 1017.0
20260510144505 87 212 3.0 11.0 0.00 0.01 0.01 58 1017.0
20260510144004 87 187 4.0 11.0 0.00 0.01 0.01 59 1017.0
20260510143502 87 201 3.0 9.0 0.00 0.01 0.01 59 1017.0
20260510143006 86 236 3.0 7.0 0.00 0.01 0.01 60 1017.0
20260510142501 85 175 2.0 8.0 0.00 0.01 0.01 62 1017.0
20260510142100 85 198 1.0 9.0 0.00 0.01 0.01 62 1017.0
20260510141603 85 242 3.0 9.0 0.00 0.01 0.01 62 1016.9
20260510141056 85 232 1.0 7.0 0.00 0.01 0.01 64 1016.9
20260510140557 84 226 3.0 7.0 0.00 0.01 0.01 64 1016.9
20260510140055 84 160 1.0 6.0 0.00 0.01 0.01 65 1016.9
20260510135554 84 188 0.0 7.0 0.00 0.01 0.01 65 1016.9
20260510135053 83 186 2.0 7.0 0.00 0.01 0.01 66 1016.9
20260510134602 83 178 0.0 9.0 0.00 0.01 0.01 67 1016.8
20260510134051 83 168 5.0 10.0 0.00 0.01 0.01 67 1016.8
20260510133549 82 159 0.0 10.0 0.00 0.01 0.01 70 1016.8
20260510133049 81 173 1.0 7.0 0.00 0.01 0.01 72 1016.8
20260510132546 80 171 1.0 7.0 0.00 0.01 0.01 74 1016.8
20260510132047 79 161 0.0 5.0 0.00 0.01 0.01 75 1016.8
20260510131544 79 180 0.0 3.0 0.00 0.01 0.01 77 1016.6
20260510131042 79 184 0.0 7.0 0.00 0.01 0.01 77 1016.6
20260510130541 78 196 2.0 5.0 0.00 0.01 0.01 77 1016.6
20260510130041 78 186 0.0 6.0 0.00 0.01 0.01 79 1016.6
20260510125541 78 157 1.0 6.0 0.00 0.01 0.01 80 1016.6
20260510125038 77 221 1.0 6.0 0.00 0.01 0.01 81 1016.6
20260510124538 77 187 2.0 5.0 0.00 0.01 0.01 83 1016.4
20260510124037 76 180 0.0 0.0 0.00 0.01 0.01 85 1016.4
20260510123537 76 169 0.0 0.0 0.00 0.01 0.01 86 1016.4
20260510123038 75 184 0.0 0.0 0.00 0.01 0.01 86 1016.4
20260510122536 75 171 0.0 0.0 0.00 0.01 0.01 87 1016.4
20260510122035 74 179 0.0 0.0 0.00 0.01 0.01 89 1016.4
20260510121535 74 198 0.0 0.0 0.00 0.01 0.01 90 1016.2
20260510121034 74 178 0.0 0.0 0.00 0.01 0.01 90 1016.2
20260510120535 74 169 0.0 0.0 0.00 0.01 0.01 90 1016.2
20260510120032 73 146 0.0 0.0 0.00 0.01 0.01 91 1015.9
20260510115532 73 146 0.0 0.0 0.00 0.01 0.01 91 1015.9
20260510115033 73 146 0.0 0.0 0.00 0.01 0.01 91 1015.9
20260510114550 72 146 0.0 0.0 0.00 0.01 0.01 91 1015.7
20260510114030 72 146 0.0 0.0 0.00 0.01 0.01 91 1015.7
20260510113528 72 146 0.0 0.0 0.00 0.01 0.01 91 1015.7
20260510113038 72 146 0.0 0.0 0.00 0.01 0.01 91 1015.5
20260510112526 72 146 0.0 0.0 0.00 0.01 0.01 91 1015.5
20260510112025 72 146 0.0 0.0 0.00 0.01 0.01 91 1015.5
20260510111531 72 146 0.0 0.0 0.00 0.01 0.01 90 1015.3
20260510111023 71 146 0.0 0.0 0.00 0.01 0.01 90 1015.3
20260510110526 71 146 0.0 0.0 0.00 0.01 0.01 90 1015.3
20260510110034 71 146 0.0 0.0 0.00 0.01 0.01 90 1015.3
20260510105521 71 146 0.0 0.0 0.00 0.01 0.01 90 1015.3
20260510105020 72 146 0.0 0.0 0.00 0.01 0.01 90 1015.3
20260510104520 72 146 0.0 0.0 0.00 0.01 0.01 90 1014.8
20260510104020 72 146 0.0 0.0 0.00 0.01 0.01 90 1014.8
20260510103523 72 146 0.0 0.0 0.00 0.01 0.01 90 1014.8
20260510103019 72 146 0.0 0.0 0.00 0.01 0.01 90 1014.5
20260510102519 72 146 0.0 0.0 0.00 0.01 0.01 90 1014.5
20260510102020 72 146 0.0 0.0 0.00 0.01 0.01 90 1014.5
20260510101518 72 146 0.0 0.0 0.00 0.01 0.01 90 1014.4
20260510101019 72 146 0.0 0.0 0.00 0.01 0.01 89 1014.4
20260510100517 72 146 0.0 0.0 0.00 0.01 0.01 89 1014.4
20260510100020 72 146 0.0 0.0 0.00 0.01 0.01 89 1014.4
20260510095517 72 146 0.0 0.0 0.00 0.01 0.01 89 1014.4
20260510095016 72 146 0.0 0.0 0.00 0.01 0.01 89 1014.4
20260510094517 73 146 0.0 0.0 0.00 0.01 0.01 89 1014.3
20260510094016 73 146 0.0 0.0 0.00 0.01 0.01 89 1014.3
20260510093525 73 146 0.0 0.0 0.00 0.01 0.01 89 1014.3
20260510093017 73 146 0.0 0.0 0.00 0.01 0.01 89 1014.0
20260510092516 73 146 0.0 0.0 0.00 0.01 0.01 89 1014.0
20260510092016 73 146 0.0 0.0 0.00 0.01 0.01 89 1014.0
20260510091515 73 146 0.0 0.0 0.00 0.01 0.01 89 1013.8
20260510091019 73 146 0.0 0.0 0.00 0.01 0.01 89 1013.8
20260510090515 73 146 0.0 0.0 0.00 0.01 0.01 89 1013.8
20260510090015 73 146 0.0 0.0 0.00 0.01 0.01 89 1013.7
20260510085518 73 146 0.0 0.0 0.00 0.01 0.01 89 1013.7
20260510085014 73 146 0.0 0.0 0.00 0.01 0.01 89 1013.7
20260510084514 73 146 0.0 0.0 0.00 0.01 0.01 89 1013.7
20260510084014 73 146 0.0 0.0 0.00 0.01 0.01 89 1013.7
20260510083513 73 148 0.0 0.0 0.00 0.01 0.01 89 1013.7
20260510083016 73 140 0.0 0.0 0.00 0.01 0.01 89 1013.6
20260510082513 73 140 0.0 0.0 0.00 0.01 0.01 89 1013.6
20260510082013 73 140 0.0 0.0 0.00 0.01 0.01 89 1013.6
20260510081513 73 140 0.0 0.0 0.00 0.01 0.01 89 1013.7
20260510081012 73 140 0.0 0.0 0.00 0.01 0.01 89 1013.7
20260510080512 73 171 0.0 0.0 0.00 0.01 0.01 89 1013.7
20260510080016 73 148 0.0 0.0 0.00 0.01 0.01 89 1013.8
20260510075511 73 144 0.0 0.0 0.00 0.01 0.01 89 1013.8
20260510075010 73 152 0.0 0.0 0.00 0.01 0.01 89 1013.8
20260510074511 73 135 0.0 0.0 0.00 0.01 0.01 89 1013.8
20260510074009 73 132 0.0 0.0 0.00 0.01 0.01 89 1013.8
20260510073509 73 132 0.0 0.0 0.00 0.01 0.01 88 1013.8
20260510073009 74 132 0.0 0.0 0.00 0.01 0.01 88 1014.0
20260510072509 74 132 0.0 0.0 0.00 0.01 0.01 88 1014.0
20260510072010 74 132 0.0 0.0 0.00 0.01 0.01 88 1014.0
20260510071508 74 132 0.0 0.0 0.00 0.01 0.01 88 1014.3
20260510071008 74 132 0.0 0.0 0.00 0.01 0.01 88 1014.3
20260510070507 74 132 0.0 0.0 0.01 0.01 0.01 87 1014.3
20260510070007 74 132 0.0 0.0 0.01 0.01 0.01 87 1014.2
20260510065507 74 132 0.0 0.0 0.01 0.01 0.01 87 1014.2
20260510065007 74 132 0.0 0.0 0.01 0.01 0.01 87 1014.2
20260510064506 74 132 0.0 0.0 0.01 0.01 0.01 87 1014.3
20260510064005 74 132 0.0 0.0 0.01 0.01 0.01 86 1014.3
20260510063505 74 132 0.0 0.0 0.01 0.01 0.01 86 1014.3
20260510063005 75 128 0.0 0.0 0.01 0.01 0.01 86 1014.4
20260510062505 75 131 0.0 0.0 0.01 0.01 0.01 85 1014.4
20260510062004 75 131 0.0 0.0 0.01 0.01 0.01 85 1014.4
20260510061504 75 135 0.0 0.0 0.01 0.01 0.01 84 1014.9
20260510061002 76 131 0.0 0.0 0.01 0.01 0.01 83 1014.9
20260510060502 76 170 0.0 0.0 0.00 0.00 0.00 82 1014.9
20260510060104 76 169 0.0 0.0 0.00 0.00 0.00 81 1015.0
20260510055559 76 119 0.0 0.0 0.00 0.00 0.00 80 1015.0
20260510055100 76 111 0.0 0.0 0.00 0.00 0.00 79 1015.0
20260510054606 76 111 0.0 0.0 0.00 0.00 0.00 79 1015.3
20260510054059 76 111 0.0 0.0 0.00 0.00 0.00 79 1015.3
20260510053602 77 111 0.0 0.0 0.00 0.00 0.00 79 1015.3
20260510053057 77 115 0.0 0.0 0.00 0.00 0.00 78 1015.1
20260510052557 77 115 0.0 0.0 0.00 0.00 0.00 77 1015.1
20260510052057 77 115 0.0 0.0 0.00 0.00 0.00 76 1015.1
20260510051557 77 155 0.0 0.0 0.00 0.00 0.00 76 1015.4
20260510051057 77 155 0.0 0.0 0.00 0.00 0.00 75 1015.4
20260510050555 77 155 0.0 0.0 0.00 0.00 0.00 75 1015.4
20260510050100 77 155 0.0 0.0 0.00 0.00 0.00 76 1015.4
20260510045559 77 101 0.0 0.0 0.00 0.00 0.00 77 1015.4
20260510045055 77 53 0.0 0.0 0.00 0.00 0.00 77 1015.4
20260510044604 77 53 0.0 0.0 0.00 0.00 0.00 77 1015.4
20260510044054 77 53 0.0 0.0 0.00 0.00 0.00 77 1015.4
20260510043555 77 53 0.0 0.0 0.00 0.00 0.00 77 1015.4
20260510043057 77 53 0.0 0.0 0.00 0.00 0.00 77 1015.4
20260510042555 77 53 0.0 0.0 0.00 0.00 0.00 77 1015.4
20260510042053 77 53 0.0 0.0 0.00 0.00 0.00 77 1015.4
20260510041557 77 53 0.0 0.0 0.00 0.00 0.00 76 1015.4
20260510041052 77 53 0.0 0.0 0.00 0.00 0.00 76 1015.4
20260510040554 77 53 0.0 0.0 0.00 0.00 0.00 76 1015.4
20260510040051 77 53 0.0 0.0 0.00 0.00 0.00 76 1015.3
20260510035550 77 53 0.0 0.0 0.00 0.00 0.00 75 1015.3
20260510035053 77 53 0.0 0.0 0.00 0.00 0.00 75 1015.3
20260510034551 77 53 0.0 0.0 0.00 0.00 0.00 74 1015.1
20260510034052 78 53 0.0 0.0 0.00 0.00 0.00 74 1015.1
20260510033550 78 53 0.0 0.0 0.00 0.00 0.00 74 1015.1
20260510033113 78 53 0.0 0.0 0.00 0.00 0.00 74 1015.2
20260510032553 78 50 0.0 0.0 0.00 0.00 0.00 74 1015.2
20260510032050 78 50 0.0 0.0 0.00 0.00 0.00 74 1015.2
20260510031605 78 360 0.0 0.0 0.00 0.00 0.00 74 1015.0
20260510031053 78 355 0.0 0.0 0.00 0.00 0.00 73 1015.0
20260510030549 78 355 0.0 0.0 0.00 0.00 0.00 73 1015.0
20260510030049 78 355 0.0 0.0 0.00 0.00 0.00 73 1015.2
20260510025549 78 355 0.0 0.0 0.00 0.00 0.00 73 1015.2
20260510025049 78 355 0.0 0.0 0.00 0.00 0.00 73 1015.2
20260510024549 78 355 0.0 0.0 0.00 0.00 0.00 72 1015.0
20260510024051 78 355 0.0 0.0 0.00 0.00 0.00 72 1015.0
20260510023548 78 355 0.0 0.0 0.00 0.00 0.00 72 1015.0
20260510023048 78 355 0.0 0.0 0.00 0.00 0.00 72 1015.1
20260510022548 78 355 0.0 0.0 0.00 0.00 0.00 72 1015.1
20260510022048 78 355 0.0 0.0 0.00 0.00 0.00 72 1015.1
20260510021549 78 355 0.0 0.0 0.00 0.00 0.00 71 1014.9
20260510021047 78 355 0.0 0.0 0.00 0.00 0.00 71 1014.9
20260510020550 78 355 0.0 0.0 0.00 0.00 0.00 70 1014.9
20260510020048 78 355 0.0 0.0 0.00 0.00 0.00 70 1014.8
20260510015549 78 355 0.0 0.0 0.00 0.00 0.00 69 1014.8
20260510015051 78 355 0.0 0.0 0.00 0.00 0.00 69 1014.8
20260510014551 79 355 0.0 0.0 0.00 0.00 0.00 68 1014.5
20260510014047 79 355 0.0 0.0 0.00 0.00 0.00 68 1014.5
20260510013547 79 355 0.0 0.0 0.00 0.00 0.00 67 1014.5
20260510013047 79 355 0.0 0.0 0.00 0.00 0.00 66 1014.3
20260510012546 79 355 0.0 0.0 0.00 0.00 0.00 66 1014.3
20260510012049 80 355 0.0 0.0 0.00 0.00 0.00 66 1014.3
20260510011551 80 355 0.0 0.0 0.00 0.00 0.00 65 1014.2
20260510011049 80 355 0.0 0.0 0.00 0.00 0.00 65 1014.2
20260510010545 80 355 0.0 0.0 0.00 0.00 0.00 64 1014.2
20260510010058 80 355 0.0 0.0 0.00 0.00 0.00 64 1014.0
20260510005546 81 355 0.0 0.0 0.00 0.00 0.00 63 1014.0
20260510005048 81 355 0.0 0.0 0.00 0.00 0.00 62 1014.0
20260510004551 81 355 0.0 0.0 0.00 0.00 0.00 62 1013.8
20260510004045 81 355 0.0 0.0 0.00 0.00 0.00 61 1013.8
20260510003545 82 355 0.0 0.0 0.00 0.00 0.00 61 1013.8
20260510003056 82 355 0.0 0.0 0.00 0.00 0.00 60 1013.5
20260510002545 82 355 0.0 0.0 0.00 0.00 0.00 59 1013.5
20260510002045 82 5 0.0 2.0 0.00 0.00 0.00 58 1013.5
20260510001547 83 331 0.0 2.0 0.00 0.00 0.00 57 1013.4
20260510001044 83 299 0.0 1.0 0.00 0.00 0.00 56 1013.4
20260510000545 83 348 0.0 3.0 0.00 0.00 0.00 55 1013.4
20260510000051 83 317 0.0 3.0 0.00 0.00 0.00 54 1013.2
20260509235547 84 250 0.0 2.0 0.00 0.00 0.00 53 1013.2
20260509235043 84 288 0.0 2.0 0.00 0.00 0.00 52 1013.2
20260509234556 84 337 0.0 0.0 0.00 0.00 0.00 50 1013.0
20260509234042 85 335 0.0 0.0 0.00 0.00 0.00 50 1013.0
20260509233547 85 288 0.0 0.0 0.00 0.00 0.00 48 1013.0
20260509233042 85 288 0.0 0.0 0.00 0.00 0.00 47 1012.8
20260509232542 86 333 0.0 0.0 0.00 0.00 0.00 47 1012.8
20260509232042 86 244 0.0 0.0 0.00 0.00 0.00 46 1012.8
20260509231542 86 207 0.0 0.0 0.00 0.00 0.00 45 1012.7
20260509231042 87 244 0.0 0.0 0.00 0.00 0.00 44 1012.7
20260509230541 87 292 0.0 0.0 0.00 0.00 0.00 43 1012.7
20260509230041 87 248 0.0 10.0 0.00 0.00 0.00 42 1012.6
20260509225544 87 216 0.0 10.0 0.00 0.00 0.00 42 1012.6
20260509225039 88 234 0.0 7.0 0.00 0.00 0.00 43 1012.6
20260509224539 88 222 0.0 7.0 0.00 0.00 0.00 43 1012.4
20260509224040 88 232 0.0 6.0 0.00 0.00 0.00 45 1012.4
20260509223539 88 216 1.0 6.0 0.00 0.00 0.00 45 1012.4
20260509223045 88 231 1.0 7.0 0.00 0.00 0.00 44 1012.3
20260509222538 89 213 2.0 7.0 0.00 0.00 0.00 42 1012.3
20260509222038 89 246 0.0 6.0 0.00 0.00 0.00 42 1012.3
20260509221540 89 242 0.0 6.0 0.00 0.00 0.00 42 1012.2
20260509221038 89 223 1.0 7.0 0.00 0.00 0.00 41 1012.2
20260509220539 89 238 1.0 10.0 0.00 0.00 0.00 42 1012.2
20260509220053 89 211 3.0 10.0 0.00 0.00 0.00 41 1012.2
20260509215537 90 242 0.0 9.0 0.00 0.00 0.00 40 1012.2
20260509215040 90 227 2.0 11.0 0.00 0.00 0.00 40 1012.2
20260509214541 90 238 1.0 11.0 0.00 0.00 0.00 41 1012.1
20260509214037 90 234 0.0 7.0 0.00 0.00 0.00 41 1012.1
20260509213537 90 248 0.0 9.0 0.00 0.00 0.00 41 1012.1
20260509213040 90 230 5.0 9.0 0.00 0.00 0.00 41 1011.8
20260509212536 90 229 0.0 10.0 0.00 0.00 0.00 41 1011.8
20260509212036 90 214 2.0 10.0 0.00 0.00 0.00 41 1011.8
20260509211542 90 296 1.0 11.0 0.00 0.00 0.00 40 1011.8
20260509211037 90 215 3.0 15.0 0.00 0.00 0.00 38 1011.8
20260509210538 90 191 4.0 15.0 0.00 0.00 0.00 39 1011.8
20260509210036 91 236 3.0 13.0 0.00 0.00 0.00 39 1011.7
20260509205536 91 202 5.0 13.0 0.00 0.00 0.00 39 1011.7
20260509205036 91 246 3.0 9.0 0.00 0.00 0.00 40 1011.7